DECAYED

STARLINK-1933, 46791 (Decayed)

Orbit data source: Space-Track

STARLINK-1933, 46791 was a payload satellite owned by SpaceX/Seattle (US) in LEO that was launched on Sat, 24 Oct 2020 UTC via an FALCON 9 launch vehicle from the Air Force Eastern Test Range (AFETR). Payload-class satellites include a variety of spacecraft equipped with specific instruments for various scientific and technological missions. These include communications satellites like Starlink; space stations such as the ISS; scientific satellites like the Hubble; Earth observation satellites from companies like Planet Labs, Umbra, and HawkEye 360; GPS; miniature CubeSats for education and research; and military/defense satellites.

Not visible in the next 10 days
Identifier
46791, 2020-074BE
Orbit
Decayed
Last TLE update
5 months ago
Origin
Manufacturer
SpaceX/Seattle
Mission
Decayed Commercial Communications
Bus & Motor
STARLINK, Unknown motor
Mass
260 kg wet, ~248 kg dry
Launch date (UTC)
2020-10-24 (5 years ago)
Launch vehicle
FALCON 9
Launch site
Air Force Eastern Test Range (AFETR)
Object type
Payload
Rocket body
Debris
Shape & HBR
Box + 1 Pan, 8.86 m
Radar Cross Section
13.562 m², Large (>1 m²)

Expand to show TLE details & history

TLE from 5 months ago
0 STARLINK-1933
1 46791U 20074BE  25042.95442016  .05496658  12127-4  10831-2 0  9999
2 46791  53.0340 226.2334 0007673 288.7369 192.1498 16.30758744238150
Epoch: 2025-02-11T22:54Z
TLE epoch observation values (Epoch: 2025-02-11T22:54:21.901Z)
Latitude
43.44326°
Longitude
-124.74002°
Altitude
199.724 km
Speed
7.789 km/s
True Right ascension
00h 04m 24s
True Declination
43° 15' 25"
Sunlit
Object was in daylight at epoch
Visualization orbit readout
Visualization observer readout
Orbital elements
Apogee altitude
195.83 km
Perigee altitude
185.75 km
Semi-major axis
6,568.927 km
Eccentricity
0.00077
Inclination
53.034°
RAAN
226.2334°
Arg. of periapsis
288.7369°
True anomaly
Unknown
Mean anomaly
192.1498°
Eccentric anomaly
Unknown
Mean motion
4.07663 °/min
Orbital period
88.31 mins
BSTAR
0.0010831
Loading maneuver chart data...
Loading SW <> Apogee altitude chart data...

STARLINK-1933 Visibility

Observer location: undefined°, undefined°

This satellite is decayed
Span
Click to sort rows by Start time (UTC) header in descending order
Start Az.
Max El. time (UTC)
Max El. Az.
Max El.
End time (UTC)
End Az.
|